Voltar ao catálogo

BREEZE-M R/B

AtivoHEO
NORAD 45987·ROCKET BODY·🇷🇺 Russia

Lançado Jul 30, 2020 de Baikonur Cosmodrome

Loading…

Próximas Passagens (próximas 24 horas)

TLE

AtualizadoSource: Space-Track

Época: Sep 14, 2026, 01:21 UTC

1 45987U 20053C   26257.05665357 -.00000284  00000-0  00000-0 0  9997
2 45987   7.6877  75.7891 4343740  83.8723 322.9004  1.03581258 23168

Acompanhe BREEZE-M R/B em tempo real com AllMySat

Download on the App Store